All
RAAF Williams Airport (Point Cook, Victoria) YMPC Weather
|
Point Cook, Victoria (YMPC)
Clear skies
Windy |
|
71 °F |
There is no TAF data available at YMPC. Showing TAF data for YMEN (16 mi NE).
MEB Terminal Area Forecast (no data for YMPC)
| Here is the undecoded forecast: 2026/08/31 21:26 YMEN 312126Z 3121/0112 01014KT CAVOK FM312300 01018G28KT CAVOK BECMG 0102/0103 01025G42KT CAVOK FM010500 01018G28KT CAVOK FM010700 34012KT CAVOK FM010900 30010KT 9999 -RA NSC RMK FM312100 SEV TURB BLW 5000FT TL010400 FM010400 MOD TURB BLW 5000FT TL011100 T 12 17 21 21 Q 1020 1018 1014 1012 |
Recent YMPC METAR history
| Date | Time (AEST) | Flight Rules | Wind Dir. | Speed | Type | Height AGL (ft) | Visibility | Temp (°C) | Temp (°F) | Dew Point (°C) | Dew Point (°F) | Rel. Humid. | Pressure | Density Altitude | Remarks |
|---|---|---|---|---|---|---|---|---|---|---|---|---|---|---|---|
| 01-Sep | 02:00PM | VFR | 340° | 19 kt | 10000 meters | 22° | 71° | 7° | 44° | 38% | 1013 mb | 860 ft | |||
| 01-Sep | 01:00PM | VFR | 350° | 13 kt | 10000 meters | 22° | 71° | 8° | 46° | 41% | 1014 mb | 831 ft | |||
| 01-Sep | 12:00PM | VFR | 340° | 14 kt | 10000 meters | 22° | 71° | 7° | 44° | 38% | 1015 mb | 801 ft | |||
| 01-Sep | 11:00AM | VFR | 360° | 16 kt | 10000 meters | 20° | 68° | 8° | 46° | 46% | 1016 mb | 532 ft | |||
| 01-Sep | 10:00AM | VFR | 20° | 17 kt | 10000 meters | 17° | 62° | 10° | 50° | 63% | 1018 mb | 112 ft | |||
| 01-Sep | 09:00AM | VFR | 10° | 14 kt | 10000 meters | 15° | 59° | 10° | 50° | 72% | 1019 mb | -157 ft | |||
| 01-Sep | 08:00AM | VFR | 20° | 7 kt | 10000 meters | 13° | 55° | 10° | 50° | 82% | 1020 mb | -427 ft | |||
| 01-Sep | 07:00AM | VFR | 10° | 5 kt | 10000 meters | 12° | 53° | 9° | 48° | 82% | 1020 mb | -547 ft | |||
| 01-Sep | 06:00AM | VFR | 360° | 7 kt | 10000 meters | 12° | 53° | 10° | 50° | 88% | 1020 mb | -547 ft | |||
| 01-Sep | 05:00AM | VFR | 10° | 6 kt | 10000 meters | 12° | 53° | 10° | 50° | 88% | 1020 mb | -547 ft | |||
| 01-Sep | 04:00AM | VFR | 360° | 8 kt | 10000 meters | 11° | 51° | 9° | 48° | 87% | 1021 mb | -696 ft | |||
| 01-Sep | 03:00AM | VFR | 10° | 6 kt | 10000 meters | 10° | 50° | 9° | 48° | 93% | 1022 mb | -846 ft | |||
| 01-Sep | 02:00AM | VFR | 350° | 7 kt | 10000 meters | 9° | 48° | 7° | 44° | 87% | 1023 mb | -995 ft | |||
| 01-Sep | 01:00AM | VFR | 350° | 3 kt | 10000 meters | 8° | 46° | 7° | 44° | 93% | 1023 mb | -1,115 ft | |||
| 01-Sep | 12:00AM | VFR | 60° | 3 kt | 10000 meters | 9° | 48° | 7° | 44° | 87% | 1024 mb | -1,025 ft | |||
| 31-Aug | 11:00PM | VFR | 60° | 3 kt | 10000 meters | 9° | 48° | 8° | 46° | 93% | 1025 mb | -1,054 ft | |||
| 31-Aug | 10:00PM | VFR | 60° | 3 kt | 10000 meters | 9° | 48° | 8° | 46° | 93% | 1026 mb | -1,084 ft | |||
| 31-Aug | 09:00PM | VFR | 60° | 3 kt | 10000 meters | 9° | 48° | 8° | 46° | 93% | 1026 mb | -1,084 ft | |||
| 31-Aug | 08:00PM | VFR | 60° | 1 kt | 10000 meters | 9° | 48° | 8° | 46° | 93% | 1026 mb | -1,084 ft | |||
| 31-Aug | 07:00PM | VFR | 120° | 2 kt | 10000 meters | 11° | 51° | 10° | 50° | 94% | 1026 mb | -844 ft | |||
| 31-Aug | 06:00PM | VFR | 130° | 3 kt | 10000 meters | 11° | 51° | 9° | 48° | 87% | 1027 mb | -873 ft | |||
| 31-Aug | 05:00PM | VFR | 130° | 3 kt | 10000 meters | 13° | 55° | 9° | 48° | 77% | 1027 mb | -633 ft | |||
| 31-Aug | 04:00PM | VFR | 160° | 4 kt | 10000 meters | 13° | 55° | 9° | 48° | 77% | 1027 mb | -633 ft | |||
| 31-Aug | 03:00PM | VFR | 140° | 5 kt | 10000 meters | 13° | 55° | 9° | 48° | 77% | 1028 mb | -663 ft |
Login
| Your browser is unsupported. upgrade your browser |
